GW0103 Weather Reports


time (UTC)temp
C
wind
direction
speed
KPH
gust
KPH
rain 1hr
cm
rain 24hr
cm
rain mn
cm
humidity
%
barometer
mb
20260510231017 18 319 1.6 9.7 0.00 0.05 0.00 46 1008.6
20260510230032 18 339 3.2 4.8 0.00 0.05 0.00 45 1008.5
20260510225028 19 94 1.6 6.4 0.00 0.05 0.00 44 1008.4
20260510224042 19 325 1.6 6.4 0.00 0.05 0.00 42 1008.1
20260510223018 20 42 1.6 6.4 0.00 0.05 0.00 42 1007.9
20260510222034 20 25 1.6 11.3 0.00 0.05 0.00 41 1007.8
20260510221029 20 326 1.6 6.4 0.00 0.05 0.00 42 1007.7
20260510220024 20 165 3.2 9.7 0.00 0.05 0.00 43 1007.5
20260510215021 20 244 3.2 9.7 0.00 0.05 0.00 45 1007.3
20260510214016 21 37 3.2 12.9 0.00 0.10 0.00 45 1007.4
20260510213032 21 261 4.8 12.9 0.00 0.15 0.00 47 1007.4
20260510212028 21 5 1.6 9.7 0.00 0.18 0.00 45 1007.2
20260510211022 21 58 3.2 9.7 0.00 0.20 0.00 49 1007.2
20260510210018 21 12 3.2 9.7 0.00 0.23 0.00 53 1007.2
20260510205037 21 88 1.6 4.8 0.00 0.30 0.00 52 1007.2
20260510204029 21 139 3.2 9.7 0.00 0.33 0.00 48 1007.1
20260510203024 21 32 3.2 9.7 0.00 0.33 0.00 52 1007.1
20260510202020 21 215 1.6 9.7 0.00 0.38 0.00 48 1007.1
20260510201036 21 1 3.2 6.4 0.00 0.41 0.00 51 1007.1
20260510200032 21 329 1.6 4.8 0.00 0.43 0.00 52 1007.0
20260510195030 20 5 3.2 6.4 0.00 0.48 0.00 62 1007.2
20260510194022 19 356 3.2 4.8 0.00 0.53 0.00 67 1007.2
20260510193017 20 5 3.2 6.4 0.00 0.56 0.00 66 1007.3
20260510192033 20 343 1.6 4.8 0.00 0.61 0.00 67 1007.4
20260510191028 20 12 4.8 12.9 0.00 0.66 0.00 69 1007.3
20260510190104 20 359 3.2 6.4 0.00 0.69 0.00 68 1007.3
20260510185020 20 332 3.2 14.5 0.00 0.74 0.00 66 1007.3
20260510184016 19 258 3.2 6.4 0.00 0.79 0.00 69 1007.5
20260510183053 17 355 1.6 6.4 0.00 0.81 0.00 74 1007.6
20260510182027 18 351 3.2 6.4 0.00 0.84 0.00 70 1007.6
20260510181023 20 220 3.2 9.7 0.00 0.89 0.00 58 1007.5
20260510180038 20 206 3.2 14.5 0.00 0.94 0.00 58 1007.3
20260510175034 20 167 3.2 4.8 0.00 0.99 0.00 61 1007.2
20260510174029 20 167 1.6 6.4 0.00 1.04 0.00 60 1007.1
20260510173044 20 122 4.8 11.3 0.00 1.09 0.00 66 1007.3
20260510172034 19 117 1.6 4.8 0.00 1.14 0.00 66 1007.5
20260510171029 19 136 1.6 6.4 0.00 1.19 0.00 66 1007.6
20260510170024 19 156 3.2 3.2 0.00 1.24 0.00 66 1007.7
20260510165021 18 153 1.6 4.8 0.00 1.27 0.00 67 1007.7
20260510164015 19 135 3.2 9.7 0.00 1.32 0.00 68 1007.9
20260510163032 18 201 3.2 9.7 0.00 1.35 0.00 66 1008.0
20260510162026 18 145 3.2 9.7 0.00 1.37 0.00 71 1008.0
20260510161023 17 138 1.6 4.8 0.00 1.40 0.00 73 1008.1
20260510160018 17 292 1.6 4.8 0.00 1.42 0.00 73 1008.1
20260510155035 17 123 1.6 3.2 0.00 1.42 0.00 76 1008.3
20260510154030 16 246 1.6 3.2 0.00 1.45 0.00 77 1008.3
20260510153024 16 219 1.6 4.8 0.00 1.50 0.00 76 1008.3
20260510152021 17 138 4.8 9.7 0.00 1.50 0.00 79 1008.3
20260510151016 16 124 1.6 3.2 0.00 1.55 0.00 79 1008.4
20260510150052 16 118 3.2 9.7 0.00 1.55 0.00 82 1008.3
20260510145028 15 85 0.0 3.2 0.00 1.57 0.00 83 1008.3
20260510144022 15 126 1.6 4.8 0.00 1.60 0.00 88 1008.4
20260510143018 14 122 3.2 6.4 0.00 1.60 0.00 91 1008.6
20260510142034 14 117 1.6 9.7 0.00 1.63 0.00 97 1008.7
20260510141028 13 114 3.2 9.7 0.00 1.63 0.00 99 1008.6
20260510140023 12 274 0.0 3.2 0.00 1.63 0.00 99 1008.7
20260510135059 12 128 1.6 3.2 0.00 1.65 0.00 99 1008.7
20260510134035 12 123 1.6 4.8 0.00 1.65 0.00 99 1008.6
20260510133032 11 0.0 0.0 0.00 1.65 0.00 99 1008.6
20260510132026 11 0.0 0.0 0.00 1.65 0.00 99 1008.8
20260510131022 10 0.0 0.0 0.00 1.65 0.00 99 1008.7
20260510130018 10 0.0 0.0 0.00 1.65 0.00 99 1008.8
20260510125035 10 0.0 0.0 0.00 1.65 0.00 99 1008.7
20260510124029 9 0.0 0.0 0.00 1.65 0.00 99 1008.8
20260510123024 9 0.0 0.0 0.00 1.65 0.00 99 1008.7
20260510122019 9 0.0 0.0 0.00 1.65 0.00 99 1008.6
20260510121036 8 0.0 0.0 0.00 1.65 0.00 99 1008.8
20260510120031 8 0.0 0.0 0.00 1.65 0.00 99 1008.9
20260510115026 8 0.0 0.0 0.00 1.65 0.00 99 1009.0
20260510114022 8 0.0 0.0 0.00 1.65 0.00 99 1008.9
20260510113018 8 0.0 0.0 0.00 1.65 0.00 99 1008.9
20260510112034 8 0.0 0.0 0.00 1.65 0.00 99 1008.7
20260510111030 7 0.0 0.0 0.00 1.65 0.00 99 1008.3
20260510110044 7 0.0 0.0 0.00 1.65 1.65 99 1008.2
20260510105020 7 0.0 0.0 0.00 1.65 1.65 99 1008.0
20260510104016 7 0.0 0.0 0.00 1.65 1.65 99 1007.9
20260510103033 7 0.0 0.0 0.00 1.65 1.65 99 1007.9
20260510102027 7 0.0 0.0 0.00 1.65 1.65 99 1007.8
20260510101102 7 0.0 0.0 0.00 1.65 1.65 99 1007.5
20260510100159 7 0.0 0.0 0.00 1.65 1.65 99 1007.3
20260510095035 7 0.0 0.0 0.00 1.65 1.65 99 1007.5
20260510094051 7 0.0 0.0 0.00 1.65 1.65 99 1007.5
20260510093025 7 0.0 0.0 0.00 1.65 1.65 99 1007.2
20260510092020 7 0.0 0.0 0.00 1.65 1.65 99 1007.5
20260510091016 7 0.0 0.0 0.00 1.65 1.65 99 1007.8
20260510090032 7 0.0 0.0 0.00 1.65 1.65 99 1007.5
20260510085027 7 0.0 0.0 0.00 1.65 1.65 99 1007.7
20260510084023 7 0.0 0.0 0.00 1.65 1.65 99 1007.6
20260510083018 7 0.0 0.0 0.00 1.65 1.65 99 1007.7
20260510082034 7 0.0 0.0 0.00 1.65 1.65 99 1007.8
20260510081030 7 0.0 0.0 0.00 1.65 1.65 99 1007.7
20260510080025 7 0.0 0.0 0.00 1.65 1.65 99 1007.4
20260510075020 7 0.0 0.0 0.00 1.65 1.65 99 1007.4
20260510074017 7 0.0 0.0 0.00 1.65 1.65 99 1007.6
20260510073053 7 32 0.0 1.6 0.00 1.65 1.65 99 1007.5
20260510072028 7 0.0 0.0 0.00 1.63 1.63 99 1007.7
20260510071023 7 41 0.0 3.2 0.00 1.63 1.63 99 1007.8
20260510070019 7 0.0 0.0 0.00 1.63 1.63 99 1007.9
20260510065036 7 0.0 0.0 0.00 1.63 1.63 99 1007.9
20260510064031 7 0.0 0.0 0.00 1.63 1.63 99 1007.6
20260510063025 7 0.0 0.0 0.00 1.63 1.63 99 1007.8
20260510062042 7 0.0 0.0 0.00 1.63 1.63 99 1007.8
20260510061017 7 0.0 0.0 0.00 1.63 1.63 99 1007.9
20260510060033 7 0.0 0.0 0.00 1.63 1.63 99 1007.8
20260510055028 7 0.0 0.0 0.00 1.63 1.63 99 1007.7
20260510054024 7 0.0 0.0 0.00 1.63 1.63 99 1008.0
20260510053039 7 0.0 0.0 0.00 1.63 1.63 99 1008.0
20260510052035 7 0.0 0.0 0.00 1.63 1.63 99 1008.1
20260510051032 7 0.0 0.0 0.00 1.63 1.63 99 1008.3
20260510050026 7 0.0 0.0 0.00 1.63 1.63 99 1008.3
20260510045021 7 0.0 0.0 0.00 1.63 1.63 99 1008.3
20260510044017 7 0.0 0.0 0.00 1.63 1.63 99 1008.2
20260510043033 7 0.0 0.0 0.00 1.63 1.63 99 1008.3
20260510042049 7 0.0 0.0 0.00 1.63 1.63 99 1008.3
20260510041044 7 0.0 0.0 0.00 1.63 1.63 99 1008.3
20260510040020 7 0.0 0.0 0.00 1.63 1.63 99 1008.2
20260510035035 7 0.0 0.0 0.00 1.63 1.63 99 1008.2
20260510034051 7 0.0 0.0 0.00 1.63 1.63 99 1008.4
20260510033026 7 0.0 0.0 0.00 1.63 1.63 99 1008.9
20260510032022 7 0.0 0.0 0.00 1.63 1.63 99 1008.7
20260510031058 7 0.0 0.0 0.00 1.63 1.63 99 1008.9
20260510030034 7 0.0 0.0 0.03 1.63 1.63 99 1009.1
20260510025029 7 0.0 0.0 0.03 1.63 1.63 99 1008.9
20260510024044 7 0.0 0.0 0.03 1.63 1.63 99 1008.9
20260510023020 7 0.0 0.0 0.03 1.63 1.63 99 1009.1
20260510022016 7 0.0 0.0 0.03 1.63 1.63 99 1009.0
20260510021032 7 0.0 0.0 0.03 1.60 1.60 99 1009.1
20260510020027 7 0.0 0.0 0.00 1.60 1.60 99 1009.1
20260510015023 7 0.0 0.0 0.00 1.60 1.60 99 1009.2
20260510014019 7 0.0 0.0 0.00 1.60 1.60 99 1009.3
20260510013034 7 0.0 0.0 0.00 1.60 1.60 99 1009.4
20260510012030 7 0.0 0.0 0.00 1.60 1.60 99 1009.3
20260510011024 7 0.0 0.0 0.00 1.60 1.60 99 1009.2
20260510010021 7 0.0 0.0 0.00 1.60 1.60 99 1009.2
20260510005036 7 0.0 0.0 0.00 1.60 1.60 99 1009.2
20260510004033 7 0.0 0.0 0.00 1.60 1.60 99 1009.0
20260510003048 7 0.0 0.0 0.00 1.60 1.60 99 1008.9
20260510002043 7 0.0 0.0 0.00 1.60 1.60 99 1008.9
20260510001018 7 0.0 0.0 0.00 1.60 1.60 99 1008.8
20260510000034 7 0.0 0.0 0.00 1.60 1.60 99 1008.8
20260509235030 7 0.0 0.0 0.00 1.60 1.60 99 1008.6
20260509234024 7 0.0 0.0 0.00 1.60 1.60 99 1008.7
20260509233020 7 0.0 0.0 0.00 1.60 1.60 99 1008.6
20260509232036 7 0.0 0.0 0.00 1.60 1.60 99 1008.5